Time,TemperatureF,DewpointF,PressureIn,WindDirection,WindDirectionDegrees,WindSpeedMPH,WindSpeedGustMPH,Humidity,HourlyPrecipIn,Conditions,Clouds,dailyrainin,SoftwareType,DateUTC
2013-02-12 00:01:00,31.0,26.0,30.05,NW,320,5.0,10.0,83,0.00,,,0.00,,2013-02-12 05:01:00,
2013-02-12 00:11:00,31.0,27.0,30.05,NW,323,6.0,9.0,84,0.00,,,0.00,,2013-02-12 05:11:00,
2013-02-12 00:21:00,31.0,27.0,30.05,NW,323,6.0,9.0,84,0.00,,,0.00,,2013-02-12 05:21:00,
2013-02-12 00:31:00,30.0,26.0,30.05,NW,306,7.0,11.0,84,0.00,,,0.00,,2013-02-12 05:31:00,
2013-02-12 00:42:00,30.0,26.0,30.05,NW,306,7.0,11.0,84,0.00,,,0.00,,2013-02-12 05:42:00,
2013-02-12 00:52:00,30.0,26.0,30.05,NW,321,6.0,11.0,85,0.00,,,0.00,,2013-02-12 05:52:00,
2013-02-12 01:01:00,30.0,26.0,30.06,NNW,329,5.0,12.0,85,0.00,,,0.00,,2013-02-12 06:01:00,
2013-02-12 01:12:00,30.0,26.0,30.06,NW,323,6.0,9.0,85,0.00,,,0.00,,2013-02-12 06:12:00,
2013-02-12 01:21:00,30.0,26.0,30.06,NW,323,6.0,9.0,85,0.00,,,0.00,,2013-02-12 06:21:00,
2013-02-12 01:31:00,30.0,26.0,30.06,NW,304,6.0,10.0,85,0.00,,,0.00,,2013-02-12 06:31:00,
2013-02-12 01:42:00,30.0,26.0,30.07,NW,311,6.0,10.0,85,0.00,,,0.00,,2013-02-12 06:42:00,
2013-02-12 01:52:00,30.0,26.0,30.07,NW,311,6.0,10.0,85,0.00,,,0.00,,2013-02-12 06:52:00,
2013-02-12 02:01:00,30.0,26.0,30.07,NW,325,4.0,9.0,85,0.00,,,0.00,,2013-02-12 07:01:00,
2013-02-12 02:11:00,30.0,26.0,30.07,NW,325,4.0,9.0,85,0.00,,,0.00,,2013-02-12 07:11:00,
2013-02-12 02:21:00,30.0,26.0,30.07,NW,317,2.0,6.0,85,0.00,,,0.00,,2013-02-12 07:21:00,
2013-02-12 02:31:00,30.0,26.0,30.07,NNW,329,5.0,10.0,85,0.00,,,0.00,,2013-02-12 07:31:00,
2013-02-12 02:41:00,30.0,26.0,30.07,NNW,329,5.0,10.0,85,0.00,,,0.00,,2013-02-12 07:41:00,
2013-02-12 02:52:00,30.0,26.0,30.07,NNW,348,3.0,9.0,84,0.00,,,0.00,,2013-02-12 07:52:00,
2013-02-12 03:01:00,30.0,25.0,30.08,NW,323,4.0,10.0,83,0.00,,,0.00,,2013-02-12 08:01:00,
2013-02-12 03:11:00,30.0,25.0,30.08,NW,323,4.0,10.0,83,0.00,,,0.00,,2013-02-12 08:11:00,
2013-02-12 03:21:00,30.0,25.0,30.09,NW,325,5.0,7.0,83,0.00,,,0.00,,2013-02-12 08:21:00,
2013-02-12 03:31:00,30.0,26.0,30.09,NW,320,5.0,9.0,84,0.00,,,0.00,,2013-02-12 08:31:00,
2013-02-12 03:41:00,30.0,26.0,30.09,NW,320,5.0,9.0,84,0.00,,,0.00,,2013-02-12 08:41:00,
2013-02-12 03:52:00,31.0,27.0,30.09,NW,319,4.0,6.0,84,0.00,,,0.00,,2013-02-12 08:52:00,
2013-02-12 04:01:00,31.0,27.0,30.09,NNW,341,8.0,11.0,84,0.00,,,0.00,,2013-02-12 09:01:00,
2013-02-12 04:11:00,31.0,26.0,30.09,NW,311,6.0,12.0,83,0.00,,,0.00,,2013-02-12 09:11:00,
2013-02-12 04:21:00,31.0,26.0,30.09,NW,311,6.0,12.0,83,0.00,,,0.00,,2013-02-12 09:21:00,
2013-02-12 04:31:00,31.0,26.0,30.09,NW,313,4.0,12.0,83,0.00,,,0.00,,2013-02-12 09:31:00,
2013-02-12 04:41:00,31.0,26.0,30.09,NW,325,3.0,8.0,83,0.00,,,0.00,,2013-02-12 09:41:00,
2013-02-12 04:52:00,31.0,26.0,30.09,NW,325,3.0,8.0,83,0.00,,,0.00,,2013-02-12 09:52:00,
2013-02-12 05:01:00,31.0,26.0,30.09,NW,311,4.0,9.0,82,0.00,,,0.00,,2013-02-12 10:01:00,
2013-02-12 05:11:00,30.0,25.0,30.09,North,355,4.0,9.0,83,0.00,,,0.00,,2013-02-12 10:11:00,
2013-02-12 05:21:00,30.0,25.0,30.09,North,355,4.0,9.0,83,0.00,,,0.00,,2013-02-12 10:21:00,
2013-02-12 05:31:00,30.0,25.0,30.10,NW,323,4.0,9.0,83,0.00,,,0.00,,2013-02-12 10:31:00,
2013-02-12 05:43:00,30.0,25.0,30.10,NW,323,4.0,9.0,83,0.00,,,0.00,,2013-02-12 10:43:00,
2013-02-12 05:52:00,30.0,26.0,30.10,NNW,330,1.0,6.0,84,0.00,,,0.00,,2013-02-12 10:52:00,
2013-02-12 06:01:00,30.0,26.0,30.10,NW,326,3.0,6.0,84,0.00,,,0.00,,2013-02-12 11:01:00,
2013-02-12 06:11:00,30.0,26.0,30.10,NW,326,3.0,6.0,84,0.00,,,0.00,,2013-02-12 11:11:00,
2013-02-12 06:21:00,29.0,25.0,30.09,NW,314,3.0,6.0,85,0.00,,,0.00,,2013-02-12 11:21:00,
2013-02-12 06:31:00,29.0,25.0,30.09,NW,314,3.0,5.0,85,0.00,,,0.00,,2013-02-12 11:31:00,
2013-02-12 06:41:00,29.0,25.0,30.09,NW,314,3.0,5.0,85,0.00,,,0.00,,2013-02-12 11:41:00,
2013-02-12 06:52:00,28.0,24.0,30.10,NW,315,3.0,5.0,86,0.00,,,0.00,,2013-02-12 11:52:00,
2013-02-12 07:01:00,28.0,24.0,30.10,NW,314,1.0,3.0,86,0.00,,,0.00,,2013-02-12 12:01:00,
2013-02-12 07:11:00,27.0,24.0,30.10,NW,314,0.0,3.0,88,0.00,,,0.00,,2013-02-12 12:11:00,
2013-02-12 07:21:00,27.0,24.0,30.10,NW,314,0.0,3.0,88,0.00,,,0.00,,2013-02-12 12:21:00,
2013-02-12 07:32:00,27.0,24.0,30.10,NW,314,2.0,3.0,88,0.00,,,0.00,,2013-02-12 12:32:00,
2013-02-12 07:42:00,27.0,24.0,30.10,NW,314,2.0,3.0,88,0.00,,,0.00,,2013-02-12 12:42:00,
2013-02-12 07:53:00,27.0,24.0,30.10,NW,315,2.0,4.0,89,0.00,,,0.00,,2013-02-12 12:53:00,
2013-02-12 08:01:00,28.0,25.0,30.10,NW,314,2.0,5.0,90,0.00,,,0.00,,2013-02-12 13:01:00,
2013-02-12 08:11:00,28.0,25.0,30.10,NW,315,1.0,3.0,90,0.00,,,0.00,,2013-02-12 13:11:00,
2013-02-12 08:22:00,28.0,25.0,30.10,NW,315,1.0,3.0,90,0.00,,,0.00,,2013-02-12 13:22:00,
2013-02-12 08:32:00,28.0,25.0,30.09,NW,315,0.0,1.0,90,0.00,,,0.00,,2013-02-12 13:32:00,
2013-02-12 08:42:00,28.0,25.0,30.09,NW,315,0.0,1.0,90,0.00,,,0.00,,2013-02-12 13:42:00,
2013-02-12 08:52:00,29.0,26.0,30.10,NW,314,2.0,3.0,90,0.00,,,0.00,,2013-02-12 13:52:00,
2013-02-12 09:01:00,29.0,26.0,30.12,NW,315,2.0,4.0,89,0.00,,,0.00,,2013-02-12 14:01:00,
2013-02-12 09:11:00,29.0,26.0,30.12,NW,315,2.0,4.0,89,0.00,,,0.00,,2013-02-12 14:11:00,
2013-02-12 09:21:00,30.0,27.0,30.12,NW,315,2.0,7.0,88,0.00,,,0.00,,2013-02-12 14:21:00,
2013-02-12 09:31:00,30.0,27.0,30.12,NW,315,3.0,5.0,87,0.00,,,0.00,,2013-02-12 14:31:00,
2013-02-12 09:42:00,30.0,27.0,30.12,NW,315,3.0,5.0,87,0.00,,,0.00,,2013-02-12 14:42:00,
2013-02-12 09:52:00,30.0,27.0,30.11,NW,314,3.0,5.0,87,0.00,,,0.00,,2013-02-12 14:52:00,
2013-02-12 10:01:00,30.0,26.0,30.11,NW,314,2.0,5.0,86,0.00,,,0.00,,2013-02-12 15:01:00,
2013-02-12 10:11:00,30.0,26.0,30.11,NW,314,3.0,5.0,86,0.00,,,0.00,,2013-02-12 15:11:00,
2013-02-12 10:21:00,30.0,26.0,30.11,NW,314,3.0,5.0,86,0.00,,,0.00,,2013-02-12 15:21:00,
2013-02-12 10:32:00,31.0,27.0,30.10,NW,314,0.0,4.0,86,0.00,,,0.00,,2013-02-12 15:32:00,
2013-02-12 10:42:00,31.0,27.0,30.10,NW,314,0.0,4.0,86,0.00,,,0.00,,2013-02-12 15:42:00,
2013-02-12 10:52:00,31.0,27.0,30.11,NNW,337,1.0,4.0,85,0.00,,,0.00,,2013-02-12 15:52:00,
2013-02-12 11:01:00,32.0,27.0,30.11,NW,313,5.0,8.0,83,0.00,,,0.00,,2013-02-12 16:01:00,
2013-02-12 11:11:00,32.0,27.0,30.11,NW,313,5.0,8.0,83,0.00,,,0.00,,2013-02-12 16:11:00,
2013-02-12 11:22:00,33.0,28.0,30.12,WNW,300,2.0,8.0,83,0.00,,,0.00,,2013-02-12 16:22:00,
2013-02-12 11:31:00,33.0,28.0,30.11,NW,317,4.0,8.0,81,0.00,,,0.00,,2013-02-12 16:31:00,
2013-02-12 11:41:00,33.0,28.0,30.11,NW,317,4.0,8.0,81,0.00,,,0.00,,2013-02-12 16:41:00,
2013-02-12 11:52:00,33.0,28.0,30.10,NNW,327,4.0,7.0,82,0.00,,,0.00,,2013-02-12 16:52:00,
2013-02-12 12:01:00,33.0,28.0,30.10,NW,313,1.0,5.0,82,0.00,,,0.00,,2013-02-12 17:01:00,
2013-02-12 12:11:00,33.0,28.0,30.09,NW,323,3.0,7.0,82,0.00,,,0.00,,2013-02-12 17:11:00,
2013-02-12 12:21:00,33.0,28.0,30.09,NW,323,3.0,7.0,82,0.00,,,0.00,,2013-02-12 17:21:00,
2013-02-12 12:32:00,33.0,28.0,30.09,WNW,301,4.0,9.0,81,0.00,,,0.00,,2013-02-12 17:32:00,
2013-02-12 12:42:00,33.0,28.0,30.09,WNW,301,4.0,9.0,81,0.00,,,0.00,,2013-02-12 17:42:00,
2013-02-12 12:52:00,34.0,29.0,30.07,NW,325,2.0,6.0,81,0.00,,,0.00,,2013-02-12 17:52:00,
2013-02-12 13:01:00,33.0,28.0,30.07,NW,313,4.0,9.0,81,0.00,,,0.00,,2013-02-12 18:01:00,
2013-02-12 13:11:00,33.0,28.0,30.05,NW,315,3.0,7.0,82,0.00,,,0.00,,2013-02-12 18:11:00,
2013-02-12 13:22:00,33.0,28.0,30.05,NW,315,3.0,7.0,82,0.00,,,0.00,,2013-02-12 18:22:00,
2013-02-12 13:31:00,33.0,28.0,30.05,NW,315,1.0,9.0,81,0.00,,,0.00,,2013-02-12 18:31:00,
2013-02-12 13:41:00,33.0,28.0,30.05,NW,315,1.0,9.0,81,0.00,,,0.00,,2013-02-12 18:41:00,
2013-02-12 13:52:00,34.0,29.0,30.04,NW,326,4.0,8.0,82,0.00,,,0.00,,2013-02-12 18:52:00,
2013-02-12 14:02:00,34.0,29.0,30.04,NW,309,5.0,10.0,82,0.00,,,0.00,,2013-02-12 19:02:00,
2013-02-12 14:11:00,34.0,29.0,30.03,NNW,329,6.0,9.0,82,0.00,,,0.00,,2013-02-12 19:11:00,
2013-02-12 14:21:00,34.0,29.0,30.03,NNW,329,6.0,9.0,82,0.00,,,0.00,,2013-02-12 19:21:00,
2013-02-12 14:31:00,34.0,29.0,30.04,NW,318,4.0,9.0,82,0.00,,,0.00,,2013-02-12 19:31:00,
2013-02-12 14:41:00,33.0,28.0,30.05,NW,311,6.0,10.0,82,0.00,,,0.00,,2013-02-12 19:41:00,
2013-02-12 14:52:00,33.0,28.0,30.05,NW,311,6.0,10.0,82,0.00,,,0.00,,2013-02-12 19:52:00,
2013-02-12 15:01:00,33.0,28.0,30.06,NW,318,5.0,9.0,82,0.00,,,0.00,,2013-02-12 20:01:00,
2013-02-12 15:11:00,33.0,28.0,30.06,NW,318,5.0,9.0,82,0.00,,,0.00,,2013-02-12 20:11:00,
2013-02-12 15:21:00,33.0,28.0,30.05,NW,314,5.0,9.0,83,0.00,,,0.00,,2013-02-12 20:21:00,
2013-02-12 15:31:00,34.0,29.0,30.05,NW,317,4.0,8.0,83,0.00,,,0.00,,2013-02-12 20:31:00,
2013-02-12 15:41:00,34.0,29.0,30.05,NW,317,4.0,8.0,83,0.00,,,0.00,,2013-02-12 20:41:00,
2013-02-12 15:52:00,34.0,29.0,30.05,NW,320,3.0,7.0,82,0.00,,,0.00,,2013-02-12 20:52:00,
2013-02-12 16:01:00,34.0,29.0,30.05,NW,316,4.0,8.0,82,0.00,,,0.00,,2013-02-12 21:01:00,
2013-02-12 16:11:00,34.0,29.0,30.05,NW,316,4.0,8.0,82,0.00,,,0.00,,2013-02-12 21:11:00,
2013-02-12 16:21:00,34.0,29.0,30.05,NW,324,3.0,6.0,82,0.00,,,0.00,,2013-02-12 21:21:00,
2013-02-12 16:31:00,34.0,29.0,30.04,NW,318,5.0,8.0,82,0.00,,,0.00,,2013-02-12 21:31:00,
2013-02-12 16:42:00,33.0,28.0,30.04,NW,318,3.0,7.0,83,0.00,,,0.00,,2013-02-12 21:42:00,
2013-02-12 16:52:00,33.0,28.0,30.04,NW,318,3.0,7.0,83,0.00,,,0.00,,2013-02-12 21:52:00,
2013-02-12 17:01:00,33.0,28.0,30.03,NNW,331,4.0,9.0,83,0.00,,,0.00,,2013-02-12 22:01:00,
2013-02-12 17:12:00,33.0,28.0,30.03,NNW,331,4.0,9.0,83,0.00,,,0.00,,2013-02-12 22:12:00,
2013-02-12 17:21:00,33.0,28.0,30.02,NNW,329,1.0,7.0,83,0.00,,,0.00,,2013-02-12 22:21:00,
2013-02-12 17:32:00,33.0,29.0,30.02,NW,323,2.0,6.0,84,0.00,,,0.00,,2013-02-12 22:32:00,
2013-02-12 17:41:00,33.0,29.0,30.02,NW,323,2.0,6.0,84,0.00,,,0.00,,2013-02-12 22:41:00,
2013-02-12 17:52:00,32.0,27.0,30.02,NW,326,2.0,6.0,83,0.00,,,0.00,,2013-02-12 22:52:00,
2013-02-12 18:01:00,32.0,28.0,30.01,NW,319,2.0,5.0,84,0.00,,,0.00,,2013-02-12 23:01:00,
2013-02-12 18:11:00,31.0,27.0,30.00,NW,315,4.0,6.0,85,0.00,,,0.00,,2013-02-12 23:11:00,
2013-02-12 18:21:00,31.0,27.0,30.00,NW,315,4.0,6.0,85,0.00,,,0.00,,2013-02-12 23:21:00,
2013-02-12 18:31:00,31.0,27.0,30.01,NW,323,1.0,6.0,85,0.00,,,0.00,,2013-02-12 23:31:00,
2013-02-12 18:41:00,31.0,27.0,30.01,NW,323,1.0,6.0,85,0.00,,,0.00,,2013-02-12 23:41:00,
2013-02-12 18:52:00,31.0,27.0,30.00,NW,322,0.0,6.0,86,0.00,,,0.00,,2013-02-12 23:52:00,
2013-02-12 19:02:00,31.0,27.0,30.01,NW,322,1.0,3.0,86,0.00,,,0.00,,2013-02-13 00:02:00,
2013-02-12 19:11:00,31.0,27.0,30.01,NW,322,1.0,3.0,86,0.00,,,0.00,,2013-02-13 00:11:00,
2013-02-12 19:21:00,31.0,27.0,30.00,NW,322,1.0,6.0,86,0.00,,,0.00,,2013-02-13 00:21:00,
2013-02-12 19:32:00,31.0,27.0,29.99,NNW,329,1.0,6.0,85,0.00,,,0.00,,2013-02-13 00:32:00,
2013-02-12 19:42:00,31.0,27.0,29.99,NNW,329,1.0,6.0,85,0.00,,,0.00,,2013-02-13 00:42:00,
2013-02-12 19:52:00,31.0,27.0,29.99,NW,315,0.0,5.0,85,0.00,,,0.00,,2013-02-13 00:52:00,
2013-02-12 20:01:00,31.0,27.0,29.99,NW,315,0.0,3.0,85,0.00,,,0.00,,2013-02-13 01:01:00,
2013-02-12 20:11:00,31.0,27.0,29.99,NW,315,0.0,3.0,85,0.00,,,0.00,,2013-02-13 01:11:00,
2013-02-12 20:21:00,31.0,27.0,29.98,NW,315,0.0,2.0,86,0.00,,,0.00,,2013-02-13 01:21:00,
2013-02-12 20:31:00,30.0,26.0,29.98,NW,315,0.0,0.0,85,0.00,,,0.00,,2013-02-13 01:31:00,
2013-02-12 20:42:00,30.0,26.0,29.98,NW,315,0.0,0.0,85,0.00,,,0.00,,2013-02-13 01:42:00,
2013-02-12 20:52:00,30.0,26.0,29.98,NW,315,0.0,0.0,85,0.00,,,0.00,,2013-02-13 01:52:00,
2013-02-12 21:01:00,29.0,25.0,29.97,NW,315,0.0,0.0,86,0.00,,,0.00,,2013-02-13 02:01:00,
2013-02-12 21:11:00,29.0,26.0,29.96,NW,315,0.0,0.0,87,0.00,,,0.00,,2013-02-13 02:11:00,
2013-02-12 21:21:00,29.0,26.0,29.96,NW,315,0.0,0.0,87,0.00,,,0.00,,2013-02-13 02:21:00,
2013-02-12 21:31:00,28.0,25.0,29.96,NW,315,0.0,0.0,88,0.00,,,0.00,,2013-02-13 02:31:00,
2013-02-12 21:41:00,28.0,25.0,29.96,NW,315,0.0,0.0,88,0.00,,,0.00,,2013-02-13 02:41:00,
2013-02-12 21:52:00,28.0,25.0,29.96,NW,315,0.0,0.0,89,0.00,,,0.00,,2013-02-13 02:52:00,
2013-02-12 22:01:00,28.0,25.0,29.97,NW,315,0.0,0.0,90,0.00,,,0.00,,2013-02-13 03:01:00,
2013-02-12 22:11:00,27.0,25.0,29.96,NW,315,0.0,0.0,91,0.00,,,0.00,,2013-02-13 03:11:00,
2013-02-12 22:21:00,27.0,25.0,29.96,NW,315,0.0,0.0,91,0.00,,,0.00,,2013-02-13 03:21:00,
2013-02-12 22:32:00,27.0,24.0,29.96,NW,315,0.0,0.0,90,0.00,,,0.00,,2013-02-13 03:32:00,
2013-02-12 22:41:00,27.0,24.0,29.96,NW,315,0.0,0.0,90,0.00,,,0.00,,2013-02-13 03:41:00,
2013-02-12 22:52:00,27.0,25.0,29.96,NW,315,0.0,0.0,91,0.00,,,0.00,,2013-02-13 03:52:00,
2013-02-12 23:01:00,26.0,24.0,29.96,NW,315,0.0,0.0,91,0.00,,,0.00,,2013-02-13 04:01:00,
2013-02-12 23:11:00,26.0,24.0,29.96,NW,315,0.0,0.0,91,0.00,,,0.00,,2013-02-13 04:11:00,
2013-02-12 23:21:00,26.0,24.0,29.95,NW,315,0.0,0.0,91,0.00,,,0.00,,2013-02-13 04:21:00,
2013-02-12 23:31:00,25.0,23.0,29.94,NW,315,0.0,0.0,92,0.00,,,0.00,,2013-02-13 04:31:00,
2013-02-12 23:41:00,25.0,23.0,29.94,NW,315,0.0,0.0,92,0.00,,,0.00,,2013-02-13 04:41:00,
2013-02-12 23:52:00,25.0,23.0,29.94,NW,315,0.0,0.0,92,0.00,,,0.00,,2013-02-13 04:52:00,